www.pogodaiklimat.ru

Погода и климат >> Архив погоды >> Индия >> Honavar


ПОГОДА в Honavar

  • Прогноз погоды в Honavar
  • Монитор погоды в Honavar
  • Климат города

АРХИВ ПОГОДЫ в Honavar

Время (UTC), дата Ветер
(напр.,м/с)
 
Видим.   Явления Облачность Т
(С)
Тd
(С)
f
(%)
Тe
(С)
Тes
(С)
Комфортность P
(гПа)
Po
(гПа)
Тmin
(С)
Tmax
(С)
R
(мм)
R24
(мм)
S
(см)
21 10.10 В 1 4000 м 3/3 600 м
[Sc]
+26.0 +24.6 92 +37 +37 очень
душно
1008.5 1005.6 0.1
00 11.10 В 1 4000 м 3/3 600 м
[Sc]
+25.4 +23.9 91 +35 +35 очень
душно
1008.3 1005.4 0.1
03 11.10 В 1 4000 м 5/3 300 м
[Sc Ac trans]
+27.4 +25.1 87 +39 +42 очень
душно
1009.9 1007.0 +24.4 +31.1 0.1
06 11.10 З 1 10 км 8/5 300 м
[Cu Sc Ac trans]
+31.0 +25.1 71 +45 +51 опасность
перегрева
1009.6 1006.7
09 11.10 З 1 10 км 6/6 300 м
[Cu Sc]
+31.4 +25.5 71 +46 +52 опасность
перегрева
1007.3 1004.4
12 11.10 З 1 10 км 5/5 200 м
[St]
+29.6 +25.4 78 +43 +44 опасность
перегрева
1007.8 1004.9 +31.5
15 11.10 З 1 4000 м 4/4 300 м
[Sc]
+28.2 +25.7 86 +42 +42 опасность
перегрева
1010.0 1007.1
18 11.10 В 1 4000 м 3/3 300 м
[Sc]
+27.2 +25.5 90 +40 +40 очень
душно
1010.5 1007.6
00 12.10 В 1 4000 м 3/0 2000 м
[Ac trans Cs]
+25.2 +24.8 98 +36 +36 очень
душно
1009.6 1006.7
03 12.10 В 1 10 км ясно +27.4 +25.7 90 +40 +46 очень
душно
1011.1 1008.2 +24.9 +31.5
06 12.10 З 1 10 км 3/3 300 м
[Sc]
+31.2 +25.3 71 +45 +59 опасность
перегрева
1010.1 1007.2
09 12.10 З 1 10 км 5/3 600 м
[Sc Ac trans]
+31.8 +25.0 67 +45 +55 опасность
перегрева
1007.8 1004.9
12 12.10 З 1 10 км 5/3 600 м
[Sc Ac trans]
+30.0 +26.1 80 +45 +46 опасность
перегрева
1007.5 1004.6 +32.0
15 12.10 З 1 4000 м 3/3 600 м
[Sc]
+29.0 +26.2 85 +44 +44 опасность
перегрева
1009.5 1006.6
18 12.10 З 1 4000 м 3/3 600 м
[Sc]
+27.4 +26.0 92 +41 +41 опасность
перегрева
1010.0 1007.1
21 12.10 В 1 4000 м ясно +26.4 +25.8 97 +39 +39 очень
душно
1009.2 1006.3
00 13.10 В 1 4000 м ясно +25.4 +24.8 96 +36 +36 очень
душно
1009.4 1006.5
03 13.10 В 1 4000 м 5/3 300 м
[Sc Ac trans]
+28.0 +25.2 85 +41 +43 опасность
перегрева
1011.9 1009.0 +25.4 +32.0
06 13.10 З 1 10 км 5/3 600 м
[Sc Ac trans]
+31.0 +25.4 72 +45 +57 опасность
перегрева
1011.8 1008.9
09 13.10 10 км н/о +31.6 +24.8 67 +45 +54 опасность
перегрева
1009.3 1006.4
12 13.10 З 1 10 км 5/5 200 м
[St]
+30.0 +25.8 78 +45 +45 опасность
перегрева
1009.7 1006.8 +32.2
15 13.10 В 1 4000 м 4/4 300 м
[Sc]
+28.6 +25.8 85 +43 +43 опасность
перегрева
1011.7 1008.8
18 13.10 З 1 4000 м зарница {дождь} 10/8 200 м
[Cb cap As op]
+27.8 +24.3 81 +39 +39 очень
душно
1012.0 1009.1 0.0
21 13.10 В 1 4000 м 10/8 200 м
[St As op]
+26.6 +24.6 89 +38 +38 очень
душно
1011.6 1008.7 0.0
00 14.10 В 1 4000 м ясно +25.8 +24.6 93 +36 +36 очень
душно
1011.1 1008.2 0.0
03 14.10 В 1 10 км ясно +27.6 +25.3 87 +40 +45 очень
душно
1013.2 1010.3 +25.4 +32.2 0.0
06 14.10 З 1 10 км 4/4 300 м
[Cu Sc]
+31.6 +25.1 69 +46 +57 опасность
перегрева
1013.1 1010.2
09 14.10 З 1 10 км 5/3 600 м
[Sc Ac trans]
+31.8 +25.0 67 +45 +55 опасность
перегрева
1010.4 1007.5
12 14.10 З 1 10 км 5/3 600 м
[Sc Ac trans]
+30.0 +25.8 78 +45 +45 опасность
перегрева
1009.7 1006.8 +32.0
15 14.10 З 1 4000 м 3/3 600 м
[Sc]
+28.8 +25.7 83 +43 +43 опасность
перегрева
1011.4 1008.5
18 14.10 З 1 4000 м {гроза} 3/3 600 м
[Sc]
+28.0 +25.2 85 +41 +41 опасность
перегрева
1011.9 1009.0
21 14.10 В 1 4000 м гроза без осадков 6/5 300 м
[Cb cap Ac trans]
+26.6 +24.9 90 +38 +38 очень
душно
1011.2 1008.3
00 15.10 ЮВ 2 4000 м гроза, ливневой дождь 10/8 300 м
[Cb cap As op]
+25.8 +24.6 93 +36 +36 очень
душно
1011.0 1008.1 1
03 15.10 З 1 4000 м 8/5 300 м
[Cu Sc Ac trans]
+27.4 +23.9 81 +38 +39 очень
душно
1014.1 1011.1 +25.4 +32.0 1
06 15.10 З 1 10 км 8/5 300 м
[Cu Sc Ac trans]
+30.6 +25.2 73 +44 +51 опасность
перегрева
1013.8 1010.9
09 15.10 З 1 10 км 8/3 300 м
[Cu Sc Ac trans Cs]
+29.6 +24.5 74 +42 +49 опасность
перегрева
1010.6 1007.7
12 15.10 З 1 10 км 8/3 300 м
[Sc Ac trans Cs]
+28.2 +24.2 79 +39 +40 очень
душно
1010.6 1007.7 +31.0
15 15.10 В 1 4000 м 1/0 2000 м
[Ac trans]
+27.0 +25.0 89 +39 +39 очень
душно
1011.7 1008.8
18 15.10 В 1 4000 м 8/8 300 м
[Sc]
+26.2 +25.1 94 +38 +38 очень
душно
1013.4 1010.5
21 15.10 В 1 4000 м 8/8 300 м
[Sc]
+26.0 +25.1 95 +37 +37 очень
душно
1011.4 1008.5
00 16.10 В 1 4000 м 8/8 300 м
[Sc]
+26.0 +25.1 95 +37 +37 очень
душно
1011.5 1008.6
03 16.10 В 1 10 км 3/3 300 м
[Sc]
+28.0 +24.3 80 +39 +42 очень
душно
1013.5 1010.5 +25.6 +31.0
06 16.10 З 1 10 км 9/6 200 м
[St Ac As]
+30.2 +25.1 74 +44 +47 опасность
перегрева
1013.2 1010.3
09 16.10 З 1 4000 м {гроза, дождь} 10/8 200 м
[Frnb As op]
+25.0 +23.5 91 +34 +34 очень
душно
1011.1 1008.2 47
12 16.10 З 1 4000 м {гроза, дождь} 10/8 200 м
[Frnb As op]
+25.0 +23.5 91 +34 +34 очень
душно
1011.2 1008.3 +31.6 47
15 16.10 В 1 4000 м 8/5 300 м
[Cu Sc Ac trans]
+25.0 +23.5 91 +34 +34 очень
душно
1013.6 1010.6 47
18 16.10 З 1 4000 м 8/5 300 м
[Cu Sc Ac trans]
+24.4 +22.6 90 +32 +32 очень
душно
1013.8 1010.8 47
21 16.10 В 1 4000 м 8/5 300 м
[Cu Sc Ac trans]
+24.0 +23.1 95 +32 +32 очень
душно
1012.6 1009.6 47
00 17.10 В 1 4000 м 5/3 300 м
[Sc Ac trans]
+24.2 +22.4 90 +32 +32 очень
душно
1012.1 1009.2 47
03 17.10 В 1 4000 м 8/5 300 м
[Cu Sc Ac trans]
+25.0 +23.5 91 +34 +35 очень
душно
1013.9 1010.9 +22.8 +31.6 47
06 17.10 З 1 10 км 8/5 300 м
[Cu Sc Ac trans]
+29.4 +23.6 71 +40 +46 очень
душно
1014.0 1011.0
09 17.10 ЮЗ 1 4000 м слабая морось 9/8 200 м
[Cb cap Ac As]
+26.6 +24.3 87 +37 +39 очень
душно
1010.6 1007.7 1
12 17.10 З 1 10 км {морось} 9/6 200 м
[Cu Sc Ac As]
+27.0 +24.1 84 +37 +38 очень
душно
1010.7 1007.8 +29.6 1
15 17.10 В 1 4000 м 8/4 300 м
[Sc Ac trans]
+25.6 +24.7 95 +36 +36 очень
душно
1013.1 1010.1 1
18 17.10 В 1 4000 м 4/0 2000 м
[Ac trans]
+24.8 +23.6 93 +34 +34 очень
душно
1013.2 1010.2 1

 

Местоположение метеостанции Honavar (Karnataka, Индия): широта 14.28 долгота 74.45 высота над уровнем моря 9 м.

В архиве по умолчанию представлена погода в Honavar за последнюю неделю. Архивные данные за месяц целиком и за предыдущие месяцы, начиная с января 2011 года, Вы можете получить, выбрав интересующий диапазон дат из раскрывающегося списка и нажав кнопку "Ввод!".


*Определитесь, кто Вы:
робот инопланетянин человек

Внимание! Время в таблицах - всемирное. Для получения местного времени необходимо прибавить поправку, которая в Honavar равна 5.5 ч.

Смотрите также архив погоды в соседних городах и на ближайших метеорологических станциях:

Погода в Shirali (Karnataka, Индия) (25 км)
Погода в Karwar (Karnataka, Индия) (65 км)
Погода в Agumbe Emo (Karnataka, Индия) (110 км)
Погода в Haveri (Karnataka, Индия) (116 км)
Погода в Shimoga (Karnataka, Индия) (133 км)
Погода в Dharwad (Karnataka, Индия) (145 км)
Погода в Mormugao (Goa, Индия) (146 км)
Погода в Panjim (Goa, Индия) (150 км)
Погода в Mangalore (Karnataka, Индия) (154 км)
Погода в Mangalore Airport (Karnataka, Индия) (158 км)

Пояснения к столбцам:

Ветер - указаны скорость ветра в м/с - средняя за 10 мин, порывы в срок и между сроками (в фигурных скобках) и направление, откуда дует ветер: С - северный, СВ - северо-восточный, В - восточный, ЮВ - юго-восточный, Ю - южный, ЮЗ - юго-западный, З - западный, СЗ - северо-западный.
Видимость - горизонтальная дальность видимости в метрах или километрах. При видимости от 1 до 10 км при отсутствии осадков обычно наблюдается дымка, при ухудшении видимости до 1 км и менее - туман. В сухую погоду видимость может ухудшаться дымом, пылью или мглою.
Явления - указаны атмосферные явления, наблюдавшиеся в срок или в последний час перед сроком; фигурными скобками обозначены явления, наблюдавшиеся между сроками (за 1-3 часа до срока); квадратными скобками обозначены град или гололедные отложения с указанием их диаметра в мм.
Облачность - указаны через наклонную черту общая и нижняя облачность в баллах и высота нижней границы облаков в метрах; квадратными скобками обозначены формы облаков: Ci - перистые, Cs - перисто-слоистые, Cc - перисто-кучевые, Ac - высококучевые, As - высокослоистые, Sc - слоисто-кучевые, Ns - слоисто-дождевые, Cu - кучевые, Cb - кучево-дождевые. Подробнее классификацию облаков см. в Атласе облаков (PDF).
T - Температура воздуха - температура, измеренная на высоте 2 м над землей.
Td - Температура точки росы - температура, при понижении до которой содержащийся в воздухе водяной пар достигнет насыщения.
f - Относительная влажность воздуха - влажноcть воздуха, измеренная на высоте 2 м над землей.
Te - Эффективная температура - температура, которую ощущает одетый по сезону человек в тени. Характеристика душности погоды. При расчете учитывается влияние влажности воздуха и скорости ветра на теплоощущения человека.
Tes - Эффективная температура на солнце - температура, которую ощущает человек, с поправкой на солнечный нагрев. Характеристика знойности погоды. Зависит от высоты солнца над горизонтом, облачности и скорости ветра. Ночью, в пасмурную погоду, а также при ветре 12 м/с и более поправка равна нулю.
P - Атмосферное давление - приведенное к уровню моря атмосферное давление.
Po - Атмосферное давление - измеренное на уровне метеостанции атмосферное давление.
Tmin - Минимальная температура - минимум температуры воздуха на высоте 2 м над землей.
Tmax - Максимальная температура - максимум температуры воздуха на высоте 2 м над землей.
R - Количество осадков - Количество выпавших осадков за период времени, мм. При наведении курсора мыши на число - период времени, за который выпало указанное количество осадков.
R24 - Количество осадков - Количество выпавших осадков за 24 часа, мм.
S - Снежный покров - Высота снежного покрова, см. При наведении курсора мыши на число - состояние снежного покрова и степень покрытия местности в баллах.